Location: Aukerman
(40.9598°N, 82.0249°W)
Time: 22:33:57
(UTC+00:00)

Daily predictions for brighter satellites

Satellite Brightness Start Highest point End
(mag) Time Altitude Azimuth Time Altitude Azimuth Time Altitude Azimuth
Aureole 1 Rocket 4.1 23:31:40 10° NNW 23:39:01 63° ENE 23:44:40 10° SSE
Cosmos 2297 Rocket 3.0 23:34:02 10° NNW 23:39:35 59° WSW 23:45:06 10° S
COSMOS 2455 3.5 23:35:55 10° NNW 23:41:22 34° NE 23:46:46 10° ESE
Cosmos 292 Rocket 3.8 23:37:47 10° S 23:42:27 65° ESE 23:47:10 10° NNE
Cosmos 1331 Rocket 4.4 23:39:26 10° S 23:44:22 43° ESE 23:49:20 10° NNE
CZ-2C R/B 3.6 23:40:07 10° NE 23:44:39 25° E 23:49:05 10° SSE
Helios 1A Rocket 4.1 23:41:47 10° ESE 23:45:01 23° ENE 23:48:13 10° NNE
CZ-2C R/B 3.4 23:39:22 10° SSE 23:45:12 86° ENE 23:50:56 10° NNW
SL-4 R/B 2.7 23:42:19 10° W 23:45:48 40° NNW 23:49:06 10° NE
Meteor 2-6 Rocket 4.3 23:40:47 10° N 23:46:34 88° WSW 23:52:06 10° S
YAOGAN 1 3.0 23:43:05 10° SE 23:47:08 40° ENE 23:51:12 10° N
Cosmos 220 Rocket 4.2 23:44:44 10° S 23:48:44 44° ESE 23:52:46 10° NNE
Cosmos 1500 Rocket 3.5 23:44:24 10° S 23:48:45 89° E 23:53:07 10° N
Okean-O 3.0 23:45:35 10° SE 23:49:44 42° ENE 23:53:56 10° N
COSMO-SKYMED 1 2.9 23:45:39 10° N 23:49:59 72° WNW 23:54:18 10° SSW
CZ-4B R/B 1.6 23:48:26 10° N 23:51:27 63° WNW 23:54:27 10° SSW
Gbstr 26 Del rocket 3.2 23:47:25 10° SW 23:51:33 65° SE 23:56:35 10° ENE
CSL-04 Rocket 4.4 23:47:03 10° SE 23:51:54 32° ENE 23:56:46 10° N
Cosmos 1515 Rocket 4.2 23:47:36 10° NNW 23:51:57 61° W 23:56:18 10° S
Lacrosse 5 rocket 1.7 23:49:10 10° NW 23:53:30 50° NE 23:57:35 10° ESE
Cosmos 1437 4.2 23:53:11 10° NNE 23:55:03 16° ENE 23:56:40 11° ESE
